Columbia County, Pennsylvania, United States
Lat: 41.04N, Lon: 76.43W
Wx Zone: PAZ053
Local Info
Past Weather Observations for Saturday, August 29, 2015

NOTE: This archive is for the closest National Weather Service station to Columbia County. Information may differ from the station used for current weather conditions.

Click here for Long-term Archive

Time Weather Temperature Dewpoint Humidity Pressure Winds Precip Visibility
23:53
Clear
55°F / 13°C 54°F / 12°C 94% 30.21 in
(1023 mb)
Calm - 7SM
22:53
Clear
55°F / 13°C 54°F / 12°C 94% 30.21 in
(1023 mb)
Calm - 8SM
21:53
Clear
57°F / 14°C 55°F / 13°C 94% 30.21 in
(1023 mb)
Calm - 8SM
20:53
Clear
59°F / 15°C 57°F / 14°C 94% 30.21 in
(1023 mb)
Calm - 9SM
19:53
Clear
61°F / 16°C 59°F / 15°C 94% 30.18 in
(1022 mb)
Calm - 10SM
18:53
Clear
64°F / 18°C 63°F / 17°C 94% 30.18 in
(1022 mb)
Calm - 10SM
17:53
Clear
70°F / 21°C 63°F / 17°C 78% 30.15 in
(1021 mb)
Calm - 10SM
16:53
Partly Cloudy
77°F / 25°C 57°F / 14°C 51% 30.15 in
(1021 mb)
SE 3.5 mph
(SE 6 kph)
- 10SM
15:53
Partly Cloudy
77°F / 25°C 57°F / 14°C 51% 30.15 in
(1021 mb)
Variable 4.6 mph
(Variable 7 kph)
- 10SM
14:53
Partly Cloudy
79°F / 26°C 57°F / 14°C 48% 30.18 in
(1022 mb)
Variable 4.6 mph
(Variable 7 kph)
- 10SM
13:53
Partly Cloudy
79°F / 26°C 57°F / 14°C 48% 30.18 in
(1022 mb)
Variable 3.5 mph
(Variable 6 kph)
- 10SM
12:53
Mostly Cloudy
75°F / 24°C 57°F / 14°C 54% 30.21 in
(1023 mb)
Calm - 10SM
11:53
Partly Cloudy
75°F / 24°C 57°F / 14°C 54% 30.21 in
(1023 mb)
E 3.5 mph
(E 6 kph)
- 10SM
10:53
Mostly Cloudy
72°F / 22°C 57°F / 14°C 61% 30.24 in
(1024 mb)
Calm - 10SM
09:53
Clear
72°F / 22°C 59°F / 15°C 65% 30.24 in
(1024 mb)
Calm - 10SM
08:53
Clear
68°F / 20°C 59°F / 15°C 73% 30.24 in
(1024 mb)
Calm - 10SM
07:53
Clear
63°F / 17°C 57°F / 14°C 83% 30.24 in
(1024 mb)
Calm - 10SM
06:53
Clear
57°F / 14°C 55°F / 13°C 94% 30.21 in
(1023 mb)
Calm - 9SM
06:15
Partly Cloudy
Fog And Mist
55°F / 13°C 54°F / 12°C 94% 30.21 in
(1023 mb)
N 3.5 mph
(N 6 kph)
- 5SM
06:07
Partly Cloudy
Fog And Mist
55°F / 13°C 54°F / 12°C 94% 30.21 in
(1023 mb)
Calm - 2 1/2SM
05:53
Partly Cloudy
Fog And Mist
54°F / 12°C 52°F / 11°C 94% 30.21 in
(1023 mb)
Calm - 6SM
05:48
Partly Cloudy
Fog And Mist
54°F / 12°C 52°F / 11°C 94% 30.18 in
(1022 mb)
Calm - 3SM
05:40
Partly Cloudy
Fog And Mist
54°F / 12°C 52°F / 11°C 94% 30.18 in
(1022 mb)
Calm - 1 3/4SM
05:30
Partly Cloudy
Fog And Mist
54°F / 12°C 52°F / 11°C 94% 30.18 in
(1022 mb)
Calm - 3SM
05:26
Mostly Cloudy
Fog And Mist
54°F / 12°C 52°F / 11°C 94% 30.18 in
(1022 mb)
Calm - 2 1/2SM
05:20
Partly Cloudy
Fog And Mist
54°F / 12°C 52°F / 11°C 94% 30.18 in
(1022 mb)
Calm - 1 1/2SM
05:11
Partly Cloudy
Fog And Mist
54°F / 12°C 52°F / 11°C 94% 30.18 in
(1022 mb)
Calm - 2 1/2SM
05:03
Mostly Cloudy
Fog And Mist
54°F / 12°C 52°F / 11°C 94% 30.18 in
(1022 mb)
Calm - 3SM
05:00
Mostly Cloudy
Fog And Mist
54°F / 12°C 54°F / 12°C 100% 30.18 in
(1022 mb)
Calm - 1 1/4SM
04:53
Obscured
Fog
54°F / 12°C 54°F / 12°C 100% 30.18 in
(1022 mb)
Calm - 1/4SM
04:43
Obscured
Fog
54°F / 12°C 54°F / 12°C 100% 30.18 in
(1022 mb)
Calm - 1/2SM
04:33
Obscured
Fog And Mist
55°F / 13°C 54°F / 12°C 94% 30.18 in
(1022 mb)
Calm - 1SM
04:27
Partly Cloudy
Fog And Mist
55°F / 13°C 54°F / 12°C 94% 30.18 in
(1022 mb)
Calm - 2 1/2SM
03:53
Clear
55°F / 13°C 54°F / 12°C 94% 30.18 in
(1022 mb)
N 3.5 mph
(N 6 kph)
- 7SM
03:28
Clear
Fog And Mist
55°F / 13°C 54°F / 12°C 94% 30.18 in
(1022 mb)
NNW 3.5 mph
(NNW 6 kph)
- 3SM
03:18
Clear
Fog And Mist
55°F / 13°C 54°F / 12°C 94% 30.18 in
(1022 mb)
Calm - 1 3/4SM
02:53
Clear
Fog And Mist
55°F / 13°C 54°F / 12°C 94% 30.18 in
(1022 mb)
Calm - 6SM
01:53
Mostly Cloudy
61°F / 16°C 57°F / 14°C 88% 30.18 in
(1022 mb)
N 3.5 mph
(N 6 kph)
- 9SM
00:53
Mostly Cloudy
61°F / 16°C 59°F / 15°C 94% 30.18 in
(1022 mb)
Calm - 8SM
Time Weather Temperature Dewpoint Humidity Pressure Winds Precip Visibility


Weather for websites

WeatherForYou.com, LLC is not responsible for any damages or problems caused by this service. Current weather conditions are obtained from the closest station including government and personal stations which may have varying degrees of accuracy. Weather forecasts are derived from the NOAA NDFD. Like all things, this site belongs to Jesus Christ... He just trusts us to maintain it. If you have any questions or comments email webmaster@weatherforyou.com

Copyright © 2015, WeatherForYou.com LLC. All rights reserved.